Weather History for KADM - March, 2013

Change the Weather History Date:

Sunday, March 31, 2013

  Actual Average Record
Temperature  
Mean Temperature 56 °F -  
Max Temperature 75 °F 67 °F 86 °F (2006)
Min Temperature 50 °F 48 °F 32 °F (2011)
Degree Days  
Heating Degree Days 10    
Growing Degree Days 6 (Base 50)    
Moisture  
Dew Point 54 °F    
Average Humidity 85    
Maximum Humidity 88    
Minimum Humidity 75    
Precipitation  
Precipitation 0.36 in - - ()
Sea Level Pressure  
Sea Level Pressure 29.88 in    
Wind  
Wind Speed 4 mph (ENE)    
Max Wind Speed 28 mph    
Max Gust Speed 36 mph    
Visibility 8 miles    
Events Rain , Thunderstorm    
Averages and records for this station are not official NWS values.
T = Trace of Precipitation, MM = Missing Value Source: NWS Daily Summary

Daily Weather History Graph

Daily Weather History Graph

Search for Another Location

Airport or City:

Trip Planner

Search our weather history database for the weather conditions in past years. The results will help you decide how hot, cold, wet, or windy it might be!

Date:

Astronomy

Mar. 31, 2013 Rise Set
Actual Time 7:16 AM CDT 7:48 PM CDT
Civil Twilight 6:51 AM CDT 8:13 PM CDT
Nautical Twilight 6:21 AM CDT 8:43 PM CDT
Astronomical Twilight 5:51 AM CDT 9:13 PM CDT
Moon No Moon Rise 10:16 AM CDT (3/31)
Length of Visible Light 13h 22m
Length of Day
12h 32m
Waning Gibbous, 77% of the Moon is Illuminated
Mar 31
Waning Gibbous
Apr 2
Last Quarter
Apr 10
New
Apr 18
First Quarter
Apr 25
Full

Hourly Weather History & Observations

Time (CDT) Temp. Dew Point Humidity Pressure Visibility Wind Dir Wind Speed Gust Speed Precip Events Conditions
12:15 AM 60.8 °F 55.2 °F 82% 29.89 in 10.0 mi Calm Calm - N/A   Clear
12:35 AM 61.2 °F 56.3 °F 84% 29.89 in 10.0 mi Calm Calm - N/A   Clear
12:55 AM 60.8 °F 55.6 °F 83% 29.89 in 10.0 mi Calm Calm - N/A   Clear
1:15 AM 59.9 °F 55.8 °F 86% 29.89 in 10.0 mi Calm Calm - N/A   Clear
1:35 AM 59.5 °F 55.4 °F 86% 29.89 in 10.0 mi East 3.5 mph - N/A   Clear
1:55 AM 58.5 °F 54.1 °F 86% 29.88 in 7.0 mi East 3.5 mph - N/A   Clear
2:15 AM 58.8 °F 55.2 °F 88% 29.88 in 10.0 mi East 5.8 mph - N/A   Clear
2:35 AM 61.0 °F 57.2 °F 87% 29.88 in 10.0 mi ESE 5.8 mph - N/A   Clear
2:55 AM 61.3 °F 57.2 °F 86% 29.87 in 10.0 mi ESE 5.8 mph - N/A   Clear
3:15 AM 61.7 °F 57.2 °F 85% 29.86 in 10.0 mi East 3.5 mph - N/A   Clear
3:35 AM 60.8 °F 56.5 °F 86% 29.84 in 10.0 mi ESE 4.6 mph - N/A   Clear
3:55 AM 60.1 °F 56.3 °F 87% 29.83 in 10.0 mi SE 5.8 mph - N/A   Clear
4:15 AM 60.6 °F 56.7 °F 87% 29.83 in 7.0 mi East 3.5 mph - N/A   Scattered Clouds
4:35 AM 60.3 °F 56.5 °F 87% 29.84 in 7.0 mi Calm Calm - N/A   Mostly Cloudy
4:55 AM 60.6 °F 57.2 °F 88% 29.83 in 7.0 mi Calm Calm - N/A   Scattered Clouds
5:15 AM 59.9 °F 55.8 °F 86% 29.81 in 5.0 mi Calm Calm - N/A   Scattered Clouds
5:35 AM 59.7 °F 56.1 °F 88% 29.87 in 5.0 mi North 27.6 mph 35.7 mph N/A Thunderstorm Scattered Clouds
5:55 AM 57.4 °F 52.7 °F 84% 29.88 in 1.5 mi NNW 11.5 mph 29.9 mph 0.23 in Rain , Thunderstorm Heavy Thunderstorms and Rain
6:15 AM 56.3 °F 51.8 °F 85% 29.91 in 10.0 mi North 15.0 mph 26.5 mph 0.11 in Rain , Thunderstorm Thunderstorms and Rain
6:35 AM 56.8 °F 52.7 °F 86% 29.88 in 7.0 mi NNE 16.1 mph 25.3 mph 0.13 in Rain , Thunderstorm Light Thunderstorms and Rain
7:55 AM 57.2 °F 51.8 °F 82% 29.91 in 10.0 mi North 17.3 mph 31.1 mph N/A   Clear
11:35 PM 50.4 °F 42.6 °F 75% 30.00 in 10.0 mi Calm Calm - N/A   Clear
11:55 PM 50.9 °F 43.9 °F 77% 30.00 in 10.0 mi North 3.5 mph - N/A   Clear